| time (UTC) | temp F | wind direction | speed MPH | gust MPH | rain 1hr in | rain 24hr in | rain mn in | humidity % | barometer mb |
| 20260505124539 | 55 | 55 | 3.0 | 5.0 | 0.01 | 0.37 | 0.37 | 92 | 1012.5 |
| 20260505123038 | 55 | 74 | 1.0 | 5.0 | 0.01 | 0.36 | 0.36 | 92 | 1012.5 |
| 20260505121533 | 55 | 42 | 1.0 | 4.0 | 0.02 | 0.36 | 0.36 | 93 | 1012.4 |
| 20260505120033 | 55 | 5 | 3.0 | 6.0 | 0.03 | 0.36 | 0.36 | 92 | 1012.5 |
| 20260505114531 | 55 | 5 | 2.0 | 5.0 | 0.05 | 0.36 | 0.36 | 92 | 1012.5 |
| 20260505113031 | 55 | 329 | 1.0 | 4.0 | 0.05 | 0.35 | 0.35 | 92 | 1012.6 |
| 20260505111536 | 55 | 44 | 1.0 | 3.0 | 0.05 | 0.35 | 0.35 | 92 | 1012.6 |
| 20260505101527 | 55 | 31 | 4.0 | 9.0 | 0.06 | 0.30 | 0.30 | 91 | 1012.6 |
| 20260505100030 | 56 | 11 | 3.0 | 6.0 | 0.05 | 0.28 | 0.28 | 90 | 1012.6 |
| 20260505094525 | 56 | 342 | 3.0 | 6.0 | 0.04 | 0.27 | 0.27 | 90 | 1012.7 |
| 20260505093025 | 55 | 30 | 3.0 | 9.0 | 0.04 | 0.26 | 0.26 | 89 | 1012.7 |
| 20260505091523 | 56 | 31 | 2.0 | 5.0 | 0.02 | 0.24 | 0.24 | 90 | 1012.7 |
| 20260505090023 | 55 | 40 | 4.0 | 8.0 | 0.02 | 0.24 | 0.24 | 90 | 1012.7 |
| 20260505084523 | 55 | 343 | 3.0 | 6.0 | 0.01 | 0.23 | 0.23 | 91 | 1012.6 |
| 20260505083019 | 55 | 34 | 3.0 | 10.0 | 0.00 | 0.22 | 0.22 | 91 | 1012.4 |
| 20260505081524 | 55 | 360 | 4.0 | 14.0 | 0.00 | 0.22 | 0.22 | 91 | 1012.1 |
| 20260505080015 | 54 | 339 | 5.0 | 10.0 | 0.01 | 0.22 | 0.22 | 91 | 1012.1 |
| 20260505074515 | 54 | 40 | 6.0 | 12.0 | 0.02 | 0.22 | 0.22 | 92 | 1011.9 |
| 20260505073012 | 54 | 27 | 2.0 | 8.0 | 0.06 | 0.22 | 0.22 | 91 | 1012.1 |
| 20260505071526 | 54 | 322 | 4.0 | 11.0 | 0.11 | 0.22 | 0.22 | 91 | 1012.1 |
| 20260505070010 | 53 | 15 | 4.0 | 9.0 | 0.13 | 0.21 | 0.21 | 91 | 1012.2 |
| 20260505064516 | 53 | 346 | 2.0 | 8.0 | 0.13 | 0.20 | 0.20 | 90 | 1012.3 |
| 20260505063009 | 53 | 30 | 3.0 | 6.0 | 0.10 | 0.15 | 0.15 | 89 | 1012.3 |
| 20260505061507 | 53 | 36 | 3.0 | 8.0 | 0.08 | 0.11 | 0.11 | 88 | 1012.1 |
| 20260505060100 | 53 | 11 | 4.0 | 11.0 | 0.07 | 0.09 | 0.09 | 87 | 1012.1 |
| 20260505054559 | 53 | 321 | 2.0 | 10.0 | 0.06 | 0.06 | 0.06 | 86 | 1012.0 |
| 20260505053104 | 54 | 343 | 5.0 | 15.0 | 0.04 | 0.05 | 0.05 | 86 | 1011.6 |
| 20260505051554 | 54 | 360 | 7.0 | 12.0 | 0.02 | 0.03 | 0.03 | 84 | 1011.5 |
| 20260505041546 | 56 | 317 | 0.0 | 3.0 | 0.01 | 0.01 | 0.01 | 82 | 1011.3 |
| 20260505040044 | 56 | 245 | 0.0 | 1.0 | 0.00 | 0.00 | 0.00 | 80 | 1011.4 |
| 20260505034540 | 57 | 210 | 0.0 | 1.0 | 0.00 | 0.00 | 0.00 | 79 | 1011.4 |
| 20260505033043 | 57 | 209 | 0.0 | 2.0 | 0.00 | 0.00 | 0.00 | 77 | 1011.4 |
| 20260505031536 | 57 | 209 | 0.0 | 3.0 | 0.00 | 0.00 | 0.00 | 75 | 1011.4 |
| 20260505030034 | 58 | 48 | 1.0 | 3.0 | 0.00 | 0.00 | 0.00 | 73 | 1011.6 |
| 20260505024532 | 58 | 47 | 0.0 | 1.0 | 0.00 | 0.00 | 0.00 | 73 | 1011.6 |
| 20260505023030 | 58 | 36 | 2.0 | 4.0 | 0.00 | 0.00 | 0.00 | 74 | 1011.8 |
| 20260505021528 | 58 | 47 | 2.0 | 4.0 | 0.00 | 0.00 | 0.00 | 74 | 1012.0 |
| 20260505020026 | 58 | 336 | 2.0 | 4.0 | 0.00 | 0.00 | 0.00 | 73 | 1012.2 |
| 20260505014525 | 58 | 338 | 2.0 | 3.0 | 0.00 | 0.00 | 0.00 | 74 | 1012.4 |
| 20260505013023 | 58 | 304 | 1.0 | 3.0 | 0.00 | 0.00 | 0.00 | 74 | 1012.6 |
| 20260505011521 | 58 | 258 | 0.0 | 2.0 | 0.00 | 0.00 | 0.00 | 74 | 1012.8 |
| 20260505010019 | 58 | 258 | 1.0 | 4.0 | 0.00 | 0.00 | 0.00 | 73 | 1013.0 |
| 20260505004518 | 58 | 236 | 1.0 | 3.0 | 0.00 | 0.00 | 0.00 | 72 | 1013.3 |
| 20260505003013 | 59 | 259 | 3.0 | 5.0 | 0.00 | 0.00 | 0.00 | 72 | 1013.5 |
| 20260505001511 | 59 | 314 | 0.0 | 2.0 | 0.00 | 0.00 | 0.00 | 75 | 1013.9 |
| 20260505000010 | 59 | 232 | 0.0 | 2.0 | 0.00 | 0.00 | 0.00 | 75 | 1014.1 |
| 20260504234508 | 59 | 232 | 0.0 | 1.0 | 0.00 | 0.00 | 0.00 | 74 | 1014.3 |
| 20260504233010 | 59 | 232 | 0.0 | 2.0 | 0.00 | 0.00 | 0.00 | 74 | 1014.4 |
| 20260504231504 | 59 | 232 | 0.0 | 3.0 | 0.00 | 0.00 | 0.00 | 73 | 1014.6 |
| 20260504230005 | 59 | 232 | 0.0 | 0.0 | 0.00 | 0.00 | 0.00 | 74 | 1014.6 |
| 20260504224502 | 59 | 232 | 0.0 | 1.0 | 0.00 | 0.00 | 0.00 | 74 | 1014.8 |
| 20260504223101 | 59 | 232 | 1.0 | 3.0 | 0.00 | 0.00 | 0.00 | 74 | 1014.9 |
| 20260504221559 | 59 | 232 | 0.0 | 0.0 | 0.00 | 0.00 | 0.00 | 73 | 1014.9 |
| 20260504220115 | 59 | 232 | 0.0 | 2.0 | 0.00 | 0.00 | 0.00 | 72 | 1015.1 |
| 20260504214558 | 60 | 232 | 0.0 | 2.0 | 0.00 | 0.00 | 0.00 | 72 | 1015.2 |
| 20260504213101 | 60 | 232 | 0.0 | 0.0 | 0.00 | 0.00 | 0.00 | 71 | 1015.3 |
| 20260504211557 | 60 | 232 | 0.0 | 1.0 | 0.00 | 0.00 | 0.00 | 69 | 1015.4 |
| 20260504210156 | 61 | 232 | 0.0 | 1.0 | 0.00 | 0.00 | 0.00 | 69 | 1015.5 |
| 20260504204555 | 61 | 232 | 0.0 | 2.0 | 0.00 | 0.00 | 0.00 | 68 | 1015.6 |
| 20260504203054 | 61 | 232 | 0.0 | 2.0 | 0.00 | 0.00 | 0.00 | 68 | 1015.6 |
| 20260504201553 | 61 | 232 | 0.0 | 2.0 | 0.00 | 0.00 | 0.00 | 67 | 1015.5 |
| 20260504200056 | 62 | 232 | 0.0 | 2.0 | 0.00 | 0.00 | 0.00 | 66 | 1015.5 |
| 20260504194552 | 62 | 232 | 1.0 | 2.0 | 0.00 | 0.00 | 0.00 | 65 | 1015.3 |
| 20260504193051 | 63 | 232 | 0.0 | 0.0 | 0.00 | 0.00 | 0.00 | 64 | 1015.1 |
| 20260504191556 | 63 | 232 | 0.0 | 2.0 | 0.00 | 0.00 | 0.00 | 62 | 1015.0 |
| 20260504184609 | 66 | 232 | 0.0 | 2.0 | 0.00 | 0.00 | 0.00 | 57 | 1014.8 |
| 20260504183053 | 66 | 232 | 0.0 | 2.0 | 0.00 | 0.00 | 0.00 | 55 | 1014.7 |
| 20260504181549 | 67 | 232 | 0.0 | 2.0 | 0.00 | 0.00 | 0.00 | 55 | 1014.7 |
| 20260504180047 | 67 | 232 | 0.0 | 2.0 | 0.00 | 0.00 | 0.00 | 53 | 1014.6 |
| 20260504174546 | 68 | 232 | 0.0 | 1.0 | 0.00 | 0.00 | 0.00 | 52 | 1014.7 |
| 20260504173049 | 68 | 232 | 1.0 | 3.0 | 0.00 | 0.00 | 0.00 | 49 | 1014.7 |
| 20260504171545 | 68 | 241 | 1.0 | 4.0 | 0.00 | 0.00 | 0.00 | 47 | 1014.7 |